User: anonymous   Login
Location: Unspecified
(0.0000°N, 0.0000°E)
Time: 08:42:50
(UTC+00:00)
Language:

PAYLOAD B - Orbit

View from above orbital plane
View from above orbital plane
View from above satellite
View from above satellite

Ground track
Ground track

The orbit data is extracted from the following two-line orbital elements,

1 27056U 01058B   17294.07231400 -.00000015  00000-0 -14467-3 0  9997
2 27056  82.5342  81.3390 0006071 153.2630 206.8777 12.60506807727675
Epoch (UTC): 21 October 2017 01:44:07
Eccentricity: 0.0006071
inclination: 82.5342°
perigee height: 1416 km
apogee height: 1425 km
right ascension of ascending node: 81.3390°
argument of perigee: 153.2630°
revolutions per day: 12.60506807
mean anomaly at epoch: 206.8777°
orbit number at epoch: 72767

The dashed part of the orbit path shows where the satellite is in the earth's shadow,  

DLR